Location: Hochstatterhof
(48.7256°N, 10.3487°E)
Time: 01:52:59
(UTC+00:00)

Cosmos 44 - Pass Details

Date: 26 September 2023
Orbit: 570 x 788 km, 65.1° (Epoch: 04 December)

Event Time Altitude Azimuth Distance (km) Brightness Sun altitude
Exits shadow 02:59:32 52° 257° (WSW) 908 3.5 -21.7°
Maximum altitude 03:00:34 66° 312° (NW) 809 3.4 -21.6°
Drops below altitude 10° 03:05:52 10° 35° (NE) 2,314 6.8 -20.8°
Sets 03:08:22 0° 38° (NE) 3,264 7.8 -20.4°
